Flag for France

Past Weather in Paris, Île-de-France, France — August 2018

Now
73 °F

Passing clouds.


Feels Like: 77 °F
Forecast: 80 / 56 °F
Wind: 8 mph from Northeast

Location: Villacoublay

Current Time: Jul 12, 2020 at 9:56:25 pm

Latest Report: Jul 12, 2020 at 9:00 pm


Visibility: N/A

Pressure: 30.24 "Hg

Humidity: 33%

Dew Point: 43 °F

Location of ParisLocation

August 2018 Weather in Paris — Graph

°F

High & Low Weather Summary for August 2018

 TemperatureHumidityPressure
High95 °F (Aug 7, 2:00 pm)100% (Aug 23, 7:00 am)30.27 "Hg (Aug 23, 7:00 am)
Low48 °F (Aug 26, 4:30 am)21% (Aug 6, 4:30 pm)29.71 "Hg (Aug 7, 6:00 pm)
Average70 °F62%30.07 "Hg
* Reported Aug 1 12:00 am — Aug 31 11:30 pm, Paris. Weather by CustomWeather, © 2020

Note: Actual official high and low records may vary slightly from our data, if they occured in-between our weather recording intervals... More about our weather records

Paris Weather History for August 1, 2018

Scroll right to see more
 ConditionsComfort  
Time TempWeatherWind HumidityBarometerVisibility
12:00 am
Wed, Aug 1
70 °FClear.5 mph60%30.12 "Hg10 mi
12:30 am70 °FPassing clouds.6 mph57%30.12 "HgN/A
1:00 am68 °FClear.7 mph64%30.12 "Hg10 mi
1:30 am68 °FClear.8 mph64%30.12 "Hg10 mi
2:00 am66 °FClear.7 mph68%30.12 "Hg10 mi
2:30 am68 °FClear.7 mph60%30.12 "Hg10 mi
3:30 am64 °FClear.6 mph68%30.12 "Hg10 mi
4:00 am64 °FPassing clouds.6 mph68%30.12 "HgN/A
4:30 am64 °FClear.6 mph68%30.12 "Hg10 mi
5:00 am64 °FClear.6 mph64%30.12 "Hg10 mi
5:30 am64 °FClear.6 mph64%30.12 "Hg10 mi
6:00 am64 °FClear.7 mph64%30.12 "Hg10 mi
6:30 am63 °FPassing clouds.5 mph68%30.12 "HgN/A
7:00 am63 °FPartly sunny.5 mph68%30.15 "HgN/A
7:30 am63 °FBroken clouds.6 mph68%30.15 "HgN/A
8:00 am64 °FSunny.6 mph64%30.15 "Hg10 mi
8:30 am66 °FSunny.5 mph64%30.15 "Hg10 mi
9:00 am68 °FPassing clouds.5 mph64%30.15 "HgN/A
9:30 am70 °FSunny.3 mph60%30.15 "Hg10 mi
10:00 am72 °FPassing clouds.5 mph57%30.15 "HgN/A
10:30 am73 °FSunny.3 mph53%30.15 "Hg10 mi
11:00 am75 °FSunny.2 mph50%30.15 "Hg10 mi
11:30 am77 °FSunny.3 mph47%30.15 "Hg10 mi
12:00 pm79 °FPassing clouds.5 mph48%30.15 "HgN/A
12:30 pm81 °FPassing clouds.5 mph45%30.15 "HgN/A
1:00 pm81 °FPassing clouds.5 mph45%30.15 "HgN/A
1:30 pm81 °FSunny.2 mph45%30.15 "Hg10 mi
2:00 pm82 °FSunny.5 mph42%30.12 "Hg10 mi
2:30 pm84 °FPassing clouds.7 mph43%30.12 "HgN/A
3:00 pm84 °FSunny.6 mph40%30.12 "Hg10 mi
3:30 pm84 °FSunny.3 mph40%30.12 "Hg10 mi
4:00 pm84 °FPassing clouds.5 mph43%30.12 "HgN/A
4:30 pm84 °FSunny.3 mph40%30.12 "Hg10 mi
5:00 pm84 °FPassing clouds.3 mph43%30.12 "HgN/A
5:30 pm84 °FPassing clouds.3 mph40%30.12 "HgN/A
6:00 pm82 °FPassing clouds.5 mph40%30.12 "HgN/A
6:30 pm84 °FSunny.2 mph37%30.09 "Hg10 mi
7:00 pm84 °FSunny.6 mph43%30.09 "Hg10 mi
7:30 pm84 °FPassing clouds.3 mph40%30.09 "HgN/A
8:00 pm82 °FSunny.2 mph42%30.12 "Hg10 mi
8:30 pm82 °FPassing clouds.3 mph42%30.12 "HgN/A
9:00 pm82 °FPassing clouds.6 mph42%30.12 "HgN/A
9:30 pm81 °FClear.5 mph45%30.12 "Hg10 mi
10:00 pm81 °FClear.5 mph45%30.15 "Hg10 mi
10:30 pm79 °FClear.6 mph48%30.15 "Hg10 mi
11:00 pm79 °FClear.5 mph48%30.15 "Hg10 mi
11:30 pm77 °FClear.6 mph51%30.15 "Hg10 mi
Weather by CustomWeather, © 2020

See weather overview